User: anonymous   Login
Location: Sternwarte Stuttgart
(48.7670°N, 9.1830°E)
Time: 20:43:17
(UTC+01:00)
Language:

Lacrosse 5 rocket - Orbit

View from above orbital plane
View from above orbital plane
View from above satellite
View from above satellite

Ground track
Ground track

The orbit data is extracted from the following two-line orbital elements,

1 28647U 05016B   19072.76216524 0.00000600  00000-0  35298-4 0    01
2 28647  57.0006 317.5167 0116000  33.2651 326.7348 15.05635942    08
Epoch (UTC): 13 March 2019 18:17:31
Eccentricity: 0.0116000
inclination: 57.0006°
perigee height: 469 km
apogee height: 630 km
right ascension of ascending node: 317.5167°
argument of perigee: 33.2651°
revolutions per day: 15.05635942
mean anomaly at epoch: 326.7348°
orbit number at epoch: 0

The dashed part of the orbit path shows where the satellite is in the earth's shadow,  

DLR